CAPE
0 0 0 0 0 0 0 0 0 0 0 0 0 0 0 0 0 0 0 0 0 4 0 0 0 6 0 0 0 0 2 0 0 0 0 0 0 0 0 28 111 163 159 92 100 67 115 214 197 350 497 667 1048 941 1259 1410 1203 1480 1416 1497 2060 1995 2493 2552 2574 2582 2423 2524 2356 2247 2163 2374 2637 2363 2688 2601 2229 1980 1550 3457 3340 3352 3156 3567 3562 3304
0 0 0 0 0 0 0 0 0 0 0 0 0 0 0 0 0 0 0 0 0 0 0 0 0 0 0 0 0 2 22 2 26 0 0 0 0 0 0 9 86 156 194 168 146 102 89 264 267 357 394 697 826 916 1131 1571 1142 1406 1660 1278 2198 1832 2375 2505 2518 2489 2349 2432 2210 2247 2230 2244 2677 2503 2633 2636 2164 1960 2489 3478 3474 3391 3501 3383 3481 3552
0 0 0 0 0 0 0 0 0 0 0 0 0 0 0 0 0 0 1 7 0 0 0 0 0 0 0 0 2 21 35 21 26 9 1 0 0 0 0 0 58 79 128 204 188 156 76 253 279 413 408 622 645 1189 1080 1515 1305 1342 2020 1118 2367 2014 2392 2353 2445 2323 2299 2306 2275 2264 2434 2272 2494 2635 2626 2551 2205 2159 2846 3492 3432 3418 3556 3459 3502 3863
0 0 0 0 0 0 0 0 0 0 0 0 0 0 0 0 0 0 0 4 7 0 0 0 0 0 0 0 0 0 8 2 0 18 53 1 0 0 0 0 28 55 77 203 213 202 134 149 276 402 431 500 546 1461 1322 1517 1478 1450 2098 1677 1761 2334 2414 2261 2358 2254 2171 2173 2423 2365 2578 2407 2398 2577 2605 2324 2526 2266 3081 3582 3448 3359 3268 3334 3452 3747
0 0 0 0 0 0 0 0 0 0 0 0 0 0 0 0 0 0 0 2 1 0 0 3 0 3 0 8 1 0 4 39 39 32 60 77 16 0 0 0 8 51 59 218 264 225 201 123 292 423 493 474 676 1504 1596 1692 1754 1604 1876 2158 1683 2160 2468 2344 2461 2314 2208 2536 2660 2438 2522 2434 2388 2486 2526 2360 2368 2072 2802 3274 3396 3593 3332 3084 3227 3485
0 0 0 0 0 0 0 0 0 0 0 0 0 0 0 0 0 0 0 0 5 20 1 0 0 0 0 88 45 34 36 27 23 28 20 46 90 28 6 3 4 50 56 210 322 256 238 176 258 406 604 491 707 1348 1719 1836 1955 1771 1881 2372 2057 1842 2441 2496 2517 2503 2492 2541 2602 2484 2558 2322 2165 2210 2282 2263 2251 2020 2299 3224 3101 3278 3508 3309 3211 3381
0 0 0 0 0 0 0 0 0 0 0 0 0 0 0 0 0 0 0 1 2 0 1 1 0 0 0 155 54 60 46 28 2 32 49 63 128 82 51 72 66 34 96 142 412 343 301 226 262 468 684 529 689 1086 1609 1968 2120 2046 2002 2526 2490 2075 2183 2581 2624 2686 2730 2577 2524 2465 2512 2417 1969 1990 1924 1995 1906 1835 2070 2716 3332 2817 3270 3359 2996 2875
0 0 0 0 0 0 0 0 0 0 0 0 0 0 0 0 0 0 0 0 8 2 4 0 0 2 2 0 64 72 35 24 12 34 98 170 178 152 124 146 154 113 142 118 313 544 459 288 306 640 744 634 664 950 1438 1853 2297 2343 2281 2518 2828 2480 2343 2497 2765 2712 2725 2626 2496 2478 2356 2426 2190 2034 1855 2356 2037 1720 2085 2143 3603 3268 3114 3187 2874 2558
0 0 0 0 0 0 0 0 0 0 0 0 0 0 0 0 0 0 0 0 0 0 2 0 0 0 0 0 0 30 20 8 22 76 157 123 219 197 190 200 209 193 212 178 135 312 544 336 322 754 820 782 728 1038 1353 1668 2263 2521 2498 2560 2875 2848 2577 2434 2792 2715 2797 2736 2555 2512 2394 2529 2508 2307 2268 2303 2542 2569 2414 2018 3318 3304 2950 3014 2604 2387
0 0 0 0 0 0 0 0 0 0 0 0 0 0 0 0 0 0 0 0 0 0 0 0 0 0 0 0 7 0 5 1 19 58 74 199 396 227 231 172 228 193 213 280 189 219 316 310 319 780 936 970 924 1093 1352 1545 2078 2569 2705 2646 2780 2996 2864 2602 2713 2778 2755 2840 2750 2611 2517 2550 2768 2642 2715 2431 2537 2654 2428 1988 2159 2547 2770 2614 2444 2319
0 0 0 0 0 0 0 0 0 0 0 0 0 0 0 0 0 0 0 0 0 0 0 10 8 0 0 0 0 0 0 62 48 36 23 16 223 235 225 155 277 341 341 339 318 258 340 370 338 758 1146 1145 1153 1248 1441 1521 1988 2507 2833 2743 2745 2899 3018 2893 2765 2721 2704 2818 2824 2687 2700 2636 2808 2839 2780 2618 2382 2714 2306 1981 1998 2266 2399 2201 2046 2299
0 0 0 0 0 0 0 0 0 0 0 0 0 0 0 0 0 0 0 0 0 0 0 1 23 19 0 0 0 0 0 10 62 80 76 78 86 295 249 175 155 340 362 350 411 395 382 554 443 703 1284 1314 1359 1480 1621 1609 1930 2425 2829 2805 2796 2811 3010 3028 2928 2771 2671 2725 2892 2792 2797 2848 2890 2914 2849 2765 2568 2609 2456 2087 2130 2174 2071 1971 1800 2050
0 0 0 0 0 0 0 0 0 0 0 0 0 0 0 0 0 0 0 0 0 0 0 0 0 0 0 0 0 0 0 0 26 85 110 121 110 165 278 240 205 240 413 385 442 457 475 702 684 622 1261 1461 1456 1623 1761 1810 1938 2388 2770 2886 2823 2823 2943 3068 3061 2887 2755 2670 2882 2910 2988 2983 3045 2932 2835 2815 2758 2572 2575 2045 2038 2111 1992 1976 1673 1772
0 0 0 0 0 0 0 0 0 0 0 0 0 0 0 0 0 0 0 0 0 0 0 0 0 0 0 0 0 0 0 0 31 72 84 87 104 105 196 200 215 278 411 398 457 592 616 749 912 778 1104 1529 1570 1668 1860 1939 2060 2383 2787 2994 2935 2896 2914 3062 3112 3040 2878 2752 2810 3012 3095 3096 3136 2993 2779 2746 2720 2601 2539 2072 2055 2034 1953 1990 1700 1734
0 0 0 0 0 0 0 0 0 0 0 0 0 0 0 0 0 0 0 0 0 0 0 0 0 0 0 0 0 0 0 0 0 22 37 24 38 71 155 198 201 190 347 634 487 733 790 815 1051 963 1029 1494 1662 1711 1921 2025 2158 2473 2809 3128 3142 3054 2977 3049 3144 3151 3068 2936 2897 3006 3118 3132 3129 3076 2781 2728 2588 2632 2406 2150 2216 1951 1864 1988 1852 1875
0 0 0 0 0 0 0 0 0 0 0 0 0 0 0 0 0 0 0 0 0 0 0 0 0 0 0 0 0 0 0 0 0 0 0 27 23 32 80 258 254 194 343 485 648 698 888 899 1047 1135 1083 1403 1706 1778 1974 2118 2246 2552 2882 3210 3335 3260 3169 3097 3172 3204 3196 3173 3077 3100 3110 3139 3116 3121 2900 2798 2574 2616 2460 2218 2348 2067 1880 1666 1791 1783
0 0 0 0 0 0 0 0 0 0 0 0 0 0 0 0 0 0 0 0 0 0 0 0 0 0 0 0 0 0 0 0 0 0 0 21 40 41 89 232 462 263 394 639 664 662 1035 1028 1025 1130 1239 1389 1751 1870 2010 2211 2300 2550 2888 3248 3457 3470 3412 3270 3227 3194 3191 3277 3288 3257 3146 3126 3150 3117 3117 2956 2813 2714 2674 2392 2329 2156 1992 1646 1468 1322
0 0 0 0 0 0 0 0 0 0 0 0 0 0 0 0 0 0 0 0 0 0 0 0 0 0 0 0 0 0 0 0 0 0 0 93 103 68 139 235 263 391 460 686 746 712 974 1202 1135 1081 1170 1423 1753 1999 2055 2244 2309 2457 2860 3206 3462 3578 3633 3502 3356 3219 3172 3243 3352 3387 3241 3146 3145 3120 3173 3158 3021 2895 2809 2534 2336 2193 2004 1750 1474 1164
0 0 0 0 0 0 0 0 0 0 0 0 0 0 0 0 0 0 0 0 0 0 0 0 0 0 0 0 0 0 0 0 0 0 0 185 403 334 341 399 388 568 593 588 638 757 969 1364 1380 1244 1163 1318 1693 2030 2126 2223 2306 2356 2693 3196 3411 3582 3720 3688 3504 3322 3235 3229 3368 3466 3347 3152 3150 3130 3151 3198 3168 3088 2819 2626 2370 2172 1946 1710 1423 1253
0 0 0 0 0 0 0 0 0 0 0 0 0 0 0 0 0 0 0 0 0 0 0 0 0 0 0 0 0 0 0 0 0 0 0 198 518 441 479 513 515 609 700 662 620 610 944 1168 1498 1502 1364 1320 1673 1964 2138 2233 2330 2369 2540 3064 3418 3558 3715 3747 3596 3409 3317 3291 3373 3476 3421 3193 3105 3173 3148 3178 3260 3150 2968 2680 2384 2130 1913 1680 1391 1330
0 0 0 0 0 0 0 0 0 0 0 0 0 0 0 0 0 0 0 0 0 0 0 0 0 0 0 0 0 0 0 0 0 1 0 37 220 338 497 506 548 636 758 806 762 703 737 1026 1204 1585 1585 1489 1676 2008 2130 2243 2360 2410 2486 2831 3324 3566 3713 3821 3699 3475 3373 3350 3369 3394 3402 3235 3101 3164 3127 3141 3249 3156 3060 2827 2477 2192 1976 1729 1413 1318
0 0 0 0 0 0 0 0 0 0 0 0 0 0 0 0 0 0 0 0 0 0 0 0 0 0 0 0 0 0 0 0 0 3 3 7 54 182 226 145 210 380 553 580 644 661 610 874 1092 1291 1541 1561 1687 2107 2173 2189 2281 2378 2476 2656 3156 3503 3687 3860 3846 3601 3440 3423 3419 3356 3326 3257 3147 3139 3115 3093 3176 3219 3051 2916 2610 2280 2038 1811 1538 1241
0 0 0 0 0 0 0 0 0 0 0 0 0 0 0 0 0 0 0 0 0 0 0 0 0 0 0 0 0 0 122 2 6 18 6 0 7 24 148 118 110 262 460 567 580 572 576 781 1009 1139 1348 1503 1674 2045 2160 2179 2232 2293 2422 2575 2932 3360 3624 3810 3922 3764 3522 3492 3504 3420 3332 3283 3227 3176 3120 3045 3128 3239 3121 2924 2722 2379 2153 2033 1874 1436
4 0 0 0 0 0 0 0 0 0 0 0 0 0 0 0 0 0 0 0 0 0 0 0 0 0 0 0 6 104 469 13 69 40 4 0 0 4 240 163 139 222 325 519 378 363 619 936 992 1020 1220 1600 1630 1841 2122 2223 2250 2253 2317 2468 2741 3141 3521 3757 3917 3890 3655 3546 3526 3498 3408 3321 3295 3251 3160 3036 3052 3212 3210 3036 2825 2568 2280 2168 2031 1701
0 0 0 0 0 0 0 0 0 0 0 0 0 0 0 0 0 0 0 0 0 0 0 0 0 0 0 0 0 206 134 121 72 41 2 0 0 0 0 575 272 251 352 480 564 558 668 908 1110 1090 1182 1513 1902 2052 2120 2214 2272 2254 2237 2328 2586 2894 3360 3678 3880 4006 3884 3673 3546 3490 3476 3382 3362 3319 3229 3102 3054 3140 3219 3115 2962 2839 2522 2405 2212 2023
0 0 0 0 0 0 0 0 0 0 0 0 0 0 0 0 0 0 0 0 0 0 0 0 0 0 0 0 0 0 9 71 28 56 38 0 0 0 0 766 667 587 715 768 771 732 714 957 1106 1117 1445 1906 1934 2038 2188 2239 2270 2265 2214 2208 2390 2752 3157 3598 3834 4113 4118 3898 3633 3508 3479 3444 3410 3373 3293 3198 3133 3139 3153 3148 3048 2997 2804 2633 2470 2273
0 0 0 0 0 0 0 0 0 0 0 0 0 0 0 0 0 0 0 0 0 0 0 0 0 0 0 0 0 0 3 18 23 47 109 2 0 0 0 265 774 706 803 949 958 871 954 1125 1362 1576 1779 2079 2211 2198 2244 2340 2370 2354 2294 2216 2214 2542 2978 3489 3835 4145 4284 4116 3778 3595 3526 3477 3431 3402 3332 3228 3158 3138 3106 3098 3124 3091 3001 2851 2690 2515
5 0 0 0 0 0 0 0 0 0 0 0 0 0 0 0 0 0 0 0 0 0 0 0 1 0 0 0 0 0 1 26 191 38 385 720 456 107 137 333 467 582 716 797 884 924 1160 1478 1809 2136 2334 2311 2324 2311 2276 2387 2470 2451 2376 2291 2193 2338 2794 3363 3838 4201 4340 4234 3980 3672 3621 3529 3462 3427 3366 3263 3135 3073 3080 2998 3050 3174 3130 3008 2854 2687
42 4 0 0 0 0 0 0 0 0 0 0 0 0 0 0 0 0 0 0 0 0 0 0 49 5 0 0 0 26 34 1 12 32 453 802 1070 1062 653 507 498 703 864 765 748 835 1096 1481 1877 2240 2709 2736 2539 2439 2419 2434 2473 2484 2424 2342 2238 2268 2761 3389 3823 4153 4383 4322 4062 3745 3620 3559 3485 3489 3465 3339 3186 3077 3064 2995 2940 3126 3214 3128 2992 2814
19 4 8 0 0 0 0 0 0 0 0 0 0 0 0 0 0 0 0 0 0 0 0 0 0 0 0 0 0 0 251 264 275 586 20 716 1168 1186 1681 990 736 902 1025 926 1023 1061 1374 1372 1429 1691 2266 2937 2839 2621 2625 2608 2564 2485 2416 2334 2250 2360 2752 3382 3783 3956 4226 4296 4127 3810 3577 3529 3497 3519 3574 3500 3350 3236 3200 3130 3032 3187 3312 3222 3100 2927
0 14 4 1 0 0 0 0 0 0 0 0 0 0 0 0 0 0 0 0 0 0 0 0 0 0 0 0 0 1 9 16 41 0 9 336 1777 2202 2188 1731 2015 1482 1675 2204 1810 1814 1557 1642 1676 1798 2392 3094 3132 2897 2841 2908 2812 2749 2712 2643 2539 2493 2714 3194 3570 3730 3937 4121 4046 3804 3563 3507 3493 3500 3594 3629 3521 3400 3355 3341 3194 3213 3417 3402 3248 3069
0 16 3 3 3 5 0 0 0 0 0 0 0 0 0 0 0 0 0 0 0 0 0 0 0 0 0 0 0 0 10 12 17 9 36 3 299 2477 2650 2146 2890 2687 2776 3033 3070 2959 2932 3979 3745 3056 2776 3401 3519 3158 3051 3127 3092 2991 2949 2898 2792 2638 2684 3038 3349 3487 3600 3928 4052 3922 3706 3630 3581 3478 3521 3671 3647 3511 3426 3415 3351 3257 3380 3496 3460 3321
1 0 0 1 0 2 2 5 0 0 0 0 0 0 0 0 0 0 0 0 0 0 0 0 0 0 0 0 0 0 0 5 12 26 19 11 26 0 1404 2314 2909 2913 2727 2817 3026 3100 3151 4015 4436 4099 3594 3557 3744 3545 3262 3278 3312 3222 3098 3031 2978 2828 2712 2923 3183 3296 3358 3716 4065 4092 3888 3779 3770 3611 3506 3593 3708 3654 3515 3470 3478 3362 3349 3433 3478 3420
0 0 1 7 1 0 0 3 7 1 0 0 0 0 0 0 0 0 0 0 0 0 0 0 0 0 56 51 0 0 0 0 13 3 4 0 87 579 683 597 1892 2282 2509 2639 2647 2596 2692 3131 4098 4270 3985 3864 3886 3736 3480 3384 3472 3400 3233 3118 3042 2960 2823 2716 3086 3194 3232 3543 3945 4108 4088 3946 3910 3849 3658 3614 3751 3847 3739 3610 3628 3566 3407 3390 3404 3383
0 0 0 4 4 0 7 2 20 8 0 0 0 0 0 0 0 0 0 0 0 0 0 0 93 45 16 30 93 21 0 2 46 30 11 237 76 630 562 296 226 662 376 1593 2544 2562 2507 2606 3242 3976 4012 3983 3976 3841 3585 3493 3536 3525 3384 3213 3128 2970 2879 2748 3012 3201 3254 3480 3842 4091 4212 4193 4100 4055 3954 3882 3986 4118 4059 3850 3768 3715 3600 3477 3370 3306
0 0 0 0 2 0 8 33 46 0 0 0 0 0 15 0 0 0 0 0 0 148 256 195 419 59 48 454 342 122 82 98 0 0 0 0 163 84 88 78 85 313 1370 1564 2607 2848 2656 2457 2688 3374 3809 3933 3976 3847 3646 3576 3592 3650 3613 3438 3437 3127 2889 2770 3018 3285 3374 3542 3869 4140 4316 4407 4371 4337 4324 4362 4389 4410 4299 4112 3904 3797 3711 3604 3568 3331
5 3 0 0 0 2 0 14 10 0 0 0 0 0 0 0 115 0 0 212 686 492 365 526 662 660 873 757 425 110 7 36 0 0 1 96 0 0 0 0 0 20 144 1812 2830 3034 2934 2757 2655 2922 3532 3842 3885 3850 3760 3682 3649 3738 3800 3680 3644 3480 3098 3008 3290 3534 3577 3666 4001 4296 4523 4632 4646 4668 4717 4682 4624 4552 4456 4296 4105 3896 3738 3588 3700 3695
16 0 16 0 0 0 0 4 2 0 0 0 40 74 6 62 0 136 293 984 1796 1190 812 678 1084 1519 1532 1444 1109 740 166 69 111 14 375 848 831 525 0 0 0 0 0 127 1529 2239 2896 3073 2842 2879 3404 3755 3866 3899 3820 3750 3761 3872 3904 3828 3801 3716 3442 3450 3697 3865 3856 3910 4259 4566 4828 4892 4892 4893 4882 4763 4675 4578 4498 4383 4229 4068 3867 3666 3533 3533
23 402 409 0 138 0 4 0 0 0 0 0 449 236 251 14 1 11 47 957 1555 1353 1030 1205 1450 1659 1797 1524 869 346 76 50 382 704 1233 1237 1088 944 702 317 21 0 0 0 0 1217 2414 3102 3222 3224 3643 3824 3890 3945 3852 3793 3871 3998 3974 3899 3920 3888 3685 3672 4010 4239 4191 4334 4706 4963 5098 5098 5028 4961 4886 4763 4665 4554 4460 4338 4214 4069 3921 3760 3581 3410
63 29 96 11 62 97 90 1 0 0 7 4 630 414 333 266 59 2 39 439 1203 965 1133 1122 1330 1600 1813 1880 1771 1520 1506 1514 1496 1236 1105 1808 2193 2132 1725 960 412 964 1237 1080 481 0 906 3187 3308 3370 3749 4020 4005 4001 3918 3826 3920 4012 4005 3989 4012 4015 3883 3805 4170 4572 4587 4936 5181 5270 5262 5194 5049 4946 4847 4743 4628 4524 4402 4296 4190 4079 3956 3814 3660 3453
57 8 56 52 47 81 56 43 0 0 824 513 474 197 134 64 252 48 0 1166 1130 921 1195 1506 1584 1588 1559 1571 1722 1931 1622 1500 1236 1501 2332 2039 2066 2039 2131 2549 1589 838 1560 1819 1708 2143 780 1674 3516 3658 4156 4468 4288 4090 3911 3837 3911 3967 4017 4069 4045 4090 4034 3956 4557 4953 5217 5415 5417 5369 5265 5167 5050 4928 4822 4707 4594 4409 4288 4171 4052 3948 3816 3655 3417 3282
375 160 6 63 20 57 86 13 14 116 873 1074 396 388 165 122 20 65 1264 1151 1413 1152 1879 1993 2030 2036 1819 1591 1528 1525 1470 1669 2063 2139 2124 2023 2156 2186 2065 2326 2620 3430 3299 4406 3458 2727 3446 2954 3193 3905 4319 4600 4474 4194 3952 3915 3926 3932 4105 4190 4205 4212 4122 4555 5241 5332 5499 5495 5408 5308 5205 5134 5040 4889 4762 4571 4354 4190 3968 3771 3630 3508 3370 3270 3318 3256
659 491 467 21 6 4 87 153 77 13 616 215 547 418 286 263 883 1046 1248 906 1364 1876 1966 2001 2135 2340 2613 2552 2385 2207 1982 1865 1677 1783 1849 2024 2136 2282 2256 2248 2355 2632 3540 3538 3622 4317 4479 4663 4236 4218 4631 4800 4663 4377 4238 4225 4214 4263 4295 4396 4399 4241 4567 5351 5521 5514 5492 5428 5321 5236 5133 5055 4940 4772 4596 4443 4260 4046 3647 3490 3365 3266 3147 3129 3100 3096
322 627 523 476 303 87 16 38 107 132 141 151 158 376 874 1253 851 1192 813 1235 1626 1679 1678 1630 1648 1960 2231 2033 1811 1704 1669 1443 1442 1530 1812 2006 2184 2327 2213 2215 2345 2571 2870 3588 3601 3631 4026 4323 4035 3677 4101 4255 4472 4098 4570 4600 4598 4572 4526 4662 4604 4813 5286 5578 5631 5516 5412 5310 5243 5148 5045 4903 4700 4493 4350 4244 4075 3749 3347 3161 2985 3002 3064 3029 2997 2936
548 207 386 298 550 575 523 771 657 803 1043 958 1020 902 1098 1126 946 655 1166 1350 1388 1403 1389 1322 1398 1508 1693 1664 1545 1450 1460 1532 1528 1620 1884 2083 2129 2204 2332 2290 2538 2563 2948 3174 3246 3519 3698 3858 4237 4119 4072 3900 3892 4622 4406 4363 4688 4631 4749 4907 4993 5271 5483 5591 5572 5469 5373 5221 5108 4943 4762 4552 4315 4149 4025 3960 3549 3178 3128 2841 2719 2804 2818 2878 2885 2776
99 205 332 552 750 479 485 731 547 728 693 697 735 794 766 790 966 965 644 565 727 795 949 1228 1222 1233 1098 996 1003 1251 1207 1407 1528 1542 1790 2071 2167 2095 2250 2338 2468 2628 2982 3124 3226 3406 3746 3801 3558 3655 3642 3383 3376 3380 3643 4366 4707 4417 4970 5093 5240 5431 5548 5503 5457 5376 5261 5065 4866 4649 4474 4301 4125 3916 3691 3100 3057 2984 2868 2685 2651 2638 2639 2641 2608 2440
477 618 513 286 395 105 387 454 504 570 679 593 694 694 697 818 814 700 620 575 573 511 578 618 539 507 586 561 623 758 944 1194 1375 1472 1661 1984 2063 2077 2109 2182 2342 2641 2692 3008 3152 3024 3258 3348 3269 2803 2941 3344 3464 3403 3386 3623 3712 4452 4871 5184 5249 5329 5408 5403 5336 4915 4881 4769 4506 4341 4189 4027 3764 3724 3168 2820 2746 2642 2614 2597 2595 2604 2552 2454 2321 2152
348 650 414 461 455 361 288 226 430 462 498 608 654 576 596 548 469 512 518 520 428 229 226 251 0 0 72 0 417 544 707 893 1129 1303 1453 1672 1907 2044 2104 2248 2440 2692 2668 2564 2708 2808 2766 2830 2603 2667 3105 3269 3350 3505 3679 3524 3390 3584 4314 4815 4960 5173 5100 4735 4382 4645 4327 4402 4216 4070 3945 3812 3493 3025 2665 2646 2620 2556 2492 2446 2393 2298 2258 2162 2078 1945
386 410 132 528 487 566 360 124 309 646 514 452 528 567 474 452 422 432 486 427 13 0 0 0 0 0 0 56 392 470 562 752 940 1197 1392 1583 1824 1971 2109 2168 2352 2460 2694 2735 2609 2595 2563 2761 2715 2680 3172 3411 3271 3299 3173 3129 3272 3421 3810 4330 4315 4498 4304 4236 4462 4297 3947 3918 3874 3771 3574 3165 2560 2418 2482 2588 2602 2529 2430 2398 2309 2170 2106 1929 1786 1681
431 176 343 289 440 132 94 176 125 338 389 431 467 454 516 514 466 232 0 0 0 0 0 0 0 0 180 388 414 468 494 633 906 1097 1229 1423 1619 1808 1896 1992 2096 2192 2222 2187 2351 2523 2449 2507 2814 3020 3211 3232 3314 3272 3134 3117 2744 2758 3344 3373 3359 4100 4038 3614 3581 3762 3699 3565 3210 2707 2408 2208 2258 2287 2335 2376 2381 2340 2180 2059 1926 1845 1766 1695 1558 1503
286 463 354 265 296 200 643 550 515 311 100 307 388 409 452 82 316 0 0 0 0 0 0 0 0 21 329 341 373 357 426 510 758 1002 1181 1212 1200 1261 1366 1374 1401 1340 1272 1533 1989 2266 2355 2262 2272 2483 2674 2430 2545 2341 2188 1920 2083 2312 2319 2424 2446 2364 2680 3102 3110 2937 2825 2497 2234 1784 1608 1734 1906 2041 2123 2124 2156 2146 1879 1758 1692 1644 1540 1466 1379 1261
Wind_Speed
nan nan nan nan nan nan nan nan nan nan nan nan nan nan nan nan nan nan nan nan nan nan nan nan nan nan nan nan nan nan nan nan nan nan nan nan nan nan nan nan 14 12 9 nan nan nan 5 5 4 4 4 4 6 6 6 6 5 4 4 4 5 5 7 7 6 5 5 5 4 2 3 2 2 3 3 4 4 5 5 10 10 11 11 12 12 13
nan nan nan nan nan nan nan nan nan nan nan nan nan nan nan nan nan nan nan nan nan nan nan nan nan nan nan nan nan nan nan nan nan nan nan nan nan nan nan nan nan 12 9 9 4 3 nan 5 5 6 5 6 8 6 8 8 8 6 6 5 6 6 7 8 8 7 6 5 6 5 4 2 1 2 3 3 4 4 5 11 11 12 13 15 15 16
nan nan nan nan nan nan nan nan nan nan nan nan nan nan nan nan nan nan nan nan nan nan nan nan nan nan nan nan nan nan nan nan nan nan nan nan nan nan nan nan nan nan 11 11 8 4 nan 7 7 7 6 6 8 8 9 9 9 8 8 5 8 8 8 8 9 8 7 5 5 5 4 4 1 0 1 1 2 4 7 11 13 14 15 17 17 17
nan nan nan nan nan nan nan nan nan nan nan nan nan nan nan nan nan nan nan nan nan nan nan nan nan nan nan nan nan nan nan nan nan nan nan nan nan nan nan nan nan nan nan 13 11 8 5 7 7 8 7 8 9 10 9 9 10 8 9 7 8 9 9 9 9 9 8 7 7 6 6 4 4 3 2 2 3 5 10 11 14 15 16 18 18 18
nan nan nan nan nan nan nan nan nan nan nan nan nan nan nan nan nan nan nan nan nan nan nan nan nan nan nan nan nan nan nan nan nan nan nan nan nan nan nan nan nan nan nan 12 12 10 7 7 9 9 9 9 9 10 10 11 10 8 11 10 10 9 9 9 10 10 9 8 8 8 6 5 4 5 5 5 4 7 11 13 14 16 17 18 19 19
nan nan nan nan nan nan nan nan nan nan nan nan nan nan nan nan nan nan nan nan nan nan nan nan nan nan nan nan nan nan nan nan nan nan nan nan nan nan nan nan nan nan nan 12 14 13 10 9 10 11 12 11 10 10 11 11 11 10 10 11 11 9 9 10 11 12 10 9 9 9 9 7 5 7 8 8 9 9 12 15 15 16 18 19 20 19
nan nan nan nan nan nan nan nan nan nan nan nan nan nan nan nan nan nan nan nan nan nan nan nan nan nan nan 25 nan nan nan nan nan nan nan nan 17 nan nan nan nan nan nan 10 12 13 13 10 11 12 13 13 12 12 12 11 11 10 10 11 11 10 8 10 11 12 11 11 9 9 9 9 9 9 7 8 9 11 11 15 17 17 18 20 21 19
nan nan nan nan nan nan nan nan nan nan nan nan nan nan nan nan nan nan nan nan nan nan nan nan nan nan nan nan nan nan nan nan nan nan nan 19 17 16 17 15 13 13 12 11 11 13 14 13 13 14 14 14 14 15 15 14 13 12 11 11 11 9 9 9 11 12 12 12 10 9 9 9 10 10 9 10 11 12 13 16 19 19 19 19 20 20
nan nan nan nan nan nan nan nan nan nan nan nan nan nan nan nan nan nan nan nan nan nan nan nan nan nan nan nan nan nan nan nan nan nan 15 17 17 16 18 18 15 14 13 12 11 12 12 13 13 15 16 15 15 16 16 16 16 15 13 11 11 10 9 9 11 12 12 12 11 11 10 10 10 11 10 10 12 14 15 16 19 20 20 20 20 20
nan nan nan nan nan nan nan nan nan nan nan nan nan nan nan nan nan nan nan nan nan nan nan nan nan nan nan nan nan nan nan nan nan nan nan 21 19 19 18 19 18 17 15 13 13 13 13 13 14 16 19 19 17 16 17 18 19 18 16 13 12 11 9 9 10 12 12 13 12 11 11 12 11 12 11 12 12 13 16 17 18 20 20 19 18 19
nan nan nan nan nan nan nan nan nan nan nan nan nan nan nan nan nan nan nan nan nan nan nan nan nan nan nan nan nan nan nan nan nan nan nan nan 23 19 19 19 20 19 18 15 13 13 14 15 15 17 20 21 20 18 19 20 20 20 19 16 14 12 11 11 11 12 13 13 12 12 13 13 13 13 13 13 13 14 15 16 17 19 19 18 17 17
nan nan nan nan nan nan nan nan nan nan nan nan nan nan nan nan nan nan nan nan nan nan nan nan nan nan nan nan nan nan nan nan nan nan nan nan nan 20 17 19 20 19 19 17 14 13 14 16 15 17 19 20 20 20 21 21 21 21 20 18 16 13 12 12 11 12 12 12 13 12 13 14 14 15 14 15 16 16 17 17 18 19 19 17 16 16
nan nan nan nan nan nan nan nan nan nan nan nan nan nan nan nan nan nan nan nan nan nan nan nan nan nan nan nan nan nan nan nan nan nan 29 27 24 21 18 18 19 18 19 18 16 14 14 16 17 17 17 18 19 19 20 22 22 22 22 21 20 16 15 13 13 12 13 12 13 14 14 14 14 15 15 15 16 16 18 18 19 20 19 18 16 15
nan nan nan nan nan nan nan nan nan nan nan nan nan nan nan nan nan nan nan nan nan nan nan nan nan nan nan nan nan nan nan nan nan nan nan nan 26 23 20 18 17 16 17 19 18 17 15 16 17 18 17 17 17 18 19 20 22 22 22 22 21 18 17 15 14 13 13 13 13 15 15 15 15 15 16 15 16 18 18 19 19 19 19 18 18 17
nan nan nan nan nan nan nan nan nan nan nan nan nan nan nan nan nan nan nan nan nan nan nan nan nan nan nan nan nan nan nan nan nan nan nan nan nan nan 23 21 17 14 16 19 18 16 15 15 17 16 15 15 16 18 18 19 20 21 20 21 21 19 17 17 16 15 14 14 14 15 16 16 16 16 17 16 17 19 20 19 18 17 17 17 16 17
nan nan nan nan nan nan nan nan nan nan nan nan nan nan nan nan nan nan nan nan nan nan nan nan nan nan nan nan nan nan nan nan nan nan nan nan nan nan nan 20 17 14 15 17 15 14 15 15 15 15 15 16 16 19 19 19 20 19 19 20 21 20 18 17 17 16 16 16 16 17 18 18 17 17 17 17 18 19 20 18 17 17 17 16 16 16
nan nan nan nan nan nan nan nan nan nan nan nan nan nan nan nan nan nan nan nan nan nan nan nan nan nan nan nan nan nan nan nan nan nan nan nan nan nan nan 16 16 17 19 18 15 13 13 12 13 15 18 19 18 17 18 19 19 20 19 19 19 19 18 17 17 17 17 17 17 18 18 19 18 18 18 19 19 20 19 17 16 16 16 17 16 15
nan nan nan nan nan nan nan nan nan nan nan nan nan nan nan nan nan nan nan nan nan nan nan nan nan nan nan nan nan nan nan nan nan nan nan nan 39 nan 24 18 16 17 18 17 15 14 13 13 13 15 18 21 19 18 17 18 18 19 18 18 17 16 16 15 16 17 17 17 17 17 18 18 18 18 18 19 19 17 16 15 14 14 15 16 16 17
nan nan nan nan nan nan nan nan nan nan nan nan nan nan nan nan nan nan nan nan nan nan nan nan nan nan nan nan nan nan nan nan nan nan nan 37 44 40 33 25 19 19 17 14 14 15 15 14 13 15 18 19 19 19 17 17 18 15 14 14 14 14 14 15 15 15 15 15 14 15 16 16 17 16 16 16 15 13 12 14 13 14 15 15 17 18
nan nan nan nan nan nan nan nan nan nan nan nan nan nan nan nan nan nan nan nan nan nan nan nan nan nan nan nan nan nan nan nan nan nan nan 39 41 42 37 28 20 18 17 15 15 15 14 13 13 15 18 20 21 21 19 19 17 14 12 12 10 10 11 12 13 13 13 13 12 12 13 14 14 14 14 13 12 10 10 12 13 13 14 16 17 20
nan nan nan nan nan nan nan nan nan nan nan nan nan nan nan nan nan nan nan nan nan nan nan nan nan nan nan nan nan nan nan nan nan nan nan nan 41 43 40 28 17 16 17 16 15 12 8 8 11 15 18 20 23 25 23 20 17 13 11 9 10 11 11 12 12 12 11 11 11 12 13 13 13 13 12 11 11 10 9 10 12 12 13 15 18 20
nan nan nan nan nan nan nan nan nan nan nan nan nan nan nan nan nan nan nan nan nan nan nan nan nan nan nan nan nan nan nan nan nan nan nan nan nan 41 39 33 24 20 19 16 14 10 6 8 11 13 18 22 24 25 24 21 18 15 11 9 9 9 10 12 12 12 12 11 11 12 12 12 12 12 12 12 10 10 9 9 11 12 14 16 18 19
nan nan nan nan nan nan nan nan nan nan nan nan nan nan nan nan nan nan nan nan nan nan nan nan nan nan nan nan nan nan 21 nan nan nan nan nan nan nan 39 39 34 29 23 16 12 11 10 10 10 12 19 23 23 23 24 22 19 14 11 9 9 10 11 12 13 12 12 12 12 13 12 12 12 12 13 12 9 10 10 10 11 13 15 16 16 17
nan nan nan nan nan nan nan nan nan nan nan nan nan nan nan nan nan nan nan nan nan nan nan nan nan nan nan nan nan 18 20 nan nan nan nan nan nan nan 36 38 40 33 27 17 14 16 15 15 16 16 17 21 22 22 23 22 20 16 12 10 9 11 12 13 13 14 14 13 12 13 12 12 12 13 12 11 9 11 11 12 12 13 14 15 15 18
nan nan nan nan nan nan nan nan nan nan nan nan nan nan nan nan nan nan nan nan nan nan nan nan nan nan nan nan nan 26 21 25 nan nan nan nan nan nan nan 37 35 29 24 20 18 17 19 22 21 17 14 18 22 22 21 21 20 19 16 13 10 10 12 12 11 13 15 15 14 12 11 12 11 11 11 11 10 12 13 13 13 13 14 14 15 18
nan nan nan nan nan nan nan nan nan nan nan nan nan nan nan nan nan nan nan nan nan nan nan nan nan nan nan nan nan nan nan nan nan nan nan nan nan nan nan 33 30 22 15 15 15 18 22 24 22 18 14 15 18 21 21 21 21 19 16 15 12 11 12 13 12 12 14 15 14 12 12 11 11 11 11 11 11 13 13 13 13 13 13 14 17 19
nan nan nan nan nan nan nan nan nan nan nan nan nan nan nan nan nan nan nan nan nan nan nan nan nan nan nan nan nan nan nan nan nan nan 24 nan nan nan nan 24 24 18 12 13 16 18 21 23 23 21 19 17 18 21 23 23 22 20 17 15 15 14 14 14 13 13 14 16 16 13 12 11 11 10 11 11 12 12 12 12 12 14 16 17 19 20
nan nan nan nan nan nan nan nan nan nan nan nan nan nan nan nan nan nan nan nan nan nan nan nan nan nan nan nan nan nan nan nan 24 nan 27 27 21 21 24 24 21 20 16 15 18 21 23 25 26 26 25 24 22 23 24 23 23 22 19 16 15 16 16 15 15 14 14 16 16 15 14 12 11 11 12 11 11 12 11 10 11 14 16 18 20 20
nan nan nan nan nan nan nan nan nan nan nan nan nan nan nan nan nan nan nan nan nan nan nan nan nan nan nan nan nan nan nan nan nan nan 28 29 30 31 32 29 24 23 21 19 20 24 25 26 28 30 31 29 28 26 25 23 22 22 21 19 18 17 16 18 17 15 14 15 16 16 15 13 11 11 12 12 11 11 10 10 11 13 15 16 19 20
nan nan nan nan nan nan nan nan nan nan nan nan nan nan nan nan nan nan nan nan nan nan nan nan nan nan nan nan nan nan 22 27 33 36 nan 36 35 36 35 31 24 22 23 23 23 26 28 29 31 32 31 32 32 30 26 22 22 22 23 22 20 18 17 19 17 15 14 15 16 17 17 15 13 12 11 11 11 11 11 11 12 12 13 16 21 23
nan nan nan nan nan nan nan nan nan nan nan nan nan nan nan nan nan nan nan nan nan nan nan nan nan nan nan nan nan nan nan nan nan nan nan 36 34 33 32 31 31 29 28 29 30 32 33 33 34 34 34 33 33 31 27 23 22 23 24 24 23 22 21 19 17 15 14 14 15 18 18 16 15 13 10 10 11 12 12 12 12 12 14 18 22 24
nan nan nan nan nan nan nan nan nan nan nan nan nan nan nan nan nan nan nan nan nan nan nan nan nan nan nan nan nan nan nan nan nan nan nan nan 38 36 33 30 31 32 34 37 38 41 40 39 38 37 35 34 32 32 29 27 26 25 25 27 26 25 26 22 18 16 13 13 16 19 19 17 16 13 10 9 11 13 13 13 13 15 17 21 23 24
nan nan nan nan nan nan nan nan nan nan nan nan nan nan nan nan nan nan nan nan nan nan nan nan nan nan nan nan nan nan nan nan nan nan nan nan nan nan 37 33 32 31 33 36 40 42 41 39 39 39 37 34 33 34 32 32 32 29 27 28 28 29 30 27 23 19 15 14 16 19 19 17 15 14 12 10 12 14 15 15 15 18 20 23 24 26
nan nan nan nan nan nan nan nan nan nan nan nan nan nan nan nan nan nan nan nan nan nan nan nan nan nan nan nan nan nan nan nan nan nan nan nan nan 37 42 39 38 35 34 36 39 40 39 39 41 42 41 39 36 35 36 36 35 32 31 31 32 32 30 29 27 24 20 17 16 18 19 17 15 14 13 14 15 16 17 18 19 21 22 24 26 28
nan nan nan nan nan nan nan nan nan nan nan nan nan nan nan nan nan nan nan nan nan nan nan nan nan nan nan nan nan nan nan nan nan nan nan 42 nan 37 36 39 37 36 37 39 38 37 38 40 42 41 39 39 37 36 39 38 35 35 36 36 35 32 31 29 29 27 25 22 19 18 18 17 15 15 16 18 19 20 21 22 23 25 26 28 30 31
nan nan nan nan nan nan nan nan nan nan nan nan nan nan nan nan nan nan nan nan nan 39 37 34 34 nan nan 43 45 47 nan nan nan nan nan nan 51 nan nan nan nan 34 37 38 37 36 36 36 37 38 37 38 38 37 39 38 37 39 39 38 36 33 31 30 30 29 28 26 23 19 17 16 15 16 18 20 22 23 24 24 26 28 29 31 32 33
nan nan nan nan nan nan nan nan nan nan nan nan nan nan nan nan 50 nan nan 48 49 45 44 41 45 45 45 43 44 46 nan nan nan nan nan nan nan nan nan nan nan nan 37 37 36 35 35 33 32 32 35 37 37 37 36 37 40 40 41 40 37 35 33 32 30 30 30 28 25 21 18 17 17 18 19 21 23 23 25 26 28 29 30 33 34 36
nan nan nan nan nan nan nan nan nan nan nan nan nan nan nan nan nan 51 53 50 54 54 51 51 51 49 46 43 44 44 46 nan 43 nan 42 53 58 56 nan nan nan nan nan 41 38 35 34 34 34 36 38 36 35 33 32 35 40 42 41 40 38 38 36 34 31 31 32 31 29 26 23 21 21 22 22 23 23 24 26 28 30 31 32 34 36 39
nan 42 33 nan 39 nan nan nan nan nan nan nan 49 50 51 nan nan nan nan 51 50 53 56 55 56 52 48 46 44 47 nan nan 39 37 41 48 54 55 59 61 nan nan nan nan nan 41 37 38 40 42 44 41 36 32 32 35 38 40 38 38 39 40 38 35 34 34 35 35 33 31 27 25 24 25 24 25 26 28 30 31 32 32 34 36 40 42
nan nan nan nan nan nan nan nan nan nan nan nan 51 49 52 53 nan nan nan 44 46 53 56 58 59 55 53 51 49 55 55 50 48 42 44 50 49 47 46 46 48 53 59 59 56 nan 44 40 43 47 50 47 39 36 38 37 35 35 37 38 41 42 40 38 38 38 39 39 37 33 31 28 28 27 27 28 30 31 33 34 35 36 39 41 44 46
nan nan nan nan nan nan nan nan nan nan 53 55 51 47 52 nan 56 nan nan 47 47 53 54 59 61 58 55 54 54 56 54 53 51 52 57 55 52 47 45 43 37 36 44 56 63 64 57 50 47 51 52 51 47 45 45 44 42 43 44 43 43 41 40 43 46 46 45 43 39 35 33 32 31 31 30 31 34 36 37 37 39 40 42 44 46 49
62 49 nan nan nan nan nan nan nan 46 49 50 47 50 50 53 nan nan 49 50 56 57 58 57 58 58 56 56 54 53 53 59 62 61 59 57 51 46 47 48 48 41 36 42 50 61 65 60 55 53 54 55 54 55 55 54 53 52 51 50 47 43 47 52 51 49 48 46 42 37 35 35 34 32 33 35 38 39 40 40 41 42 44 45 47 51
59 51 47 nan nan nan nan 44 nan nan 46 49 49 49 50 46 45 48 50 57 59 61 59 56 54 54 54 57 60 59 58 60 61 60 58 55 54 53 52 54 52 48 46 47 51 62 78 82 74 65 60 59 60 61 62 63 62 59 55 51 49 53 55 55 53 52 51 49 45 40 37 37 37 35 36 38 40 41 42 42 42 43 45 48 49 53
62 54 50 50 57 nan nan nan 48 45 44 45 42 43 46 50 47 54 57 59 61 59 57 54 55 53 53 53 54 56 58 58 60 61 60 58 56 55 58 61 59 56 54 52 47 47 63 76 82 83 88 88 76 65 64 66 63 60 56 51 55 56 57 57 55 53 53 52 48 43 39 39 38 39 39 40 40 42 43 42 43 45 47 50 52 55
65 62 54 52 55 56 56 57 54 49 43 47 51 49 49 51 55 62 64 61 60 59 57 57 55 57 56 54 56 56 55 55 55 60 63 61 60 60 61 62 64 61 56 55 52 48 51 64 76 81 83 82 81 78 74 63 55 55 53 52 52 54 55 56 57 56 54 54 50 45 42 41 40 41 42 40 41 42 42 43 46 47 47 51 54 55
nan 72 59 53 56 63 58 57 57 54 52 55 56 57 63 67 68 67 64 59 57 55 55 55 54 55 57 57 58 56 55 51 52 56 60 61 62 62 62 64 68 69 66 62 60 57 52 56 64 70 71 73 73 67 63 64 65 57 55 53 51 53 55 55 56 56 57 55 50 46 44 44 44 44 43 41 40 42 42 44 46 48 49 53 53 50
77 81 75 65 62 68 63 64 62 60 57 62 65 62 64 66 65 63 60 56 52 53 55 55 55 56 57 59 58 56 57 54 51 52 54 59 62 61 62 64 66 69 72 71 64 57 58 60 62 64 63 65 66 67 61 54 51 50 52 56 56 54 53 53 54 56 56 53 49 46 46 46 44 44 43 42 43 44 46 47 49 51 53 53 52 49
66 77 74 69 69 65 60 54 53 58 54 57 67 69 66 64 65 62 55 52 53 54 53 54 nan nan nan nan 56 57 58 57 57 55 55 58 59 59 59 60 61 63 68 71 67 62 60 61 62 64 63 61 63 69 65 58 55 47 43 50 57 57 51 50 52 54 53 50 48 47 48 47 48 47 44 44 45 47 48 50 50 51 52 50 49 49
55 65 63 68 66 68 63 50 46 55 61 60 63 68 66 64 63 60 55 54 nan nan nan nan nan nan nan nan 55 57 59 58 57 57 59 59 60 60 58 57 57 56 57 63 64 63 61 58 61 64 64 58 60 67 66 63 59 47 37 47 58 58 52 52 54 54 54 53 51 51 50 49 47 46 47 50 52 52 51 47 48 52 52 45 42 44
54 52 57 58 57 58 nan 56 54 57 62 62 64 65 68 67 65 60 nan nan nan nan nan nan nan nan 53 53 54 55 56 54 54 54 58 58 58 59 60 57 54 52 52 54 56 58 60 62 62 62 62 61 61 65 68 62 58 47 47 49 56 59 59 56 53 52 53 53 51 49 48 47 47 47 49 50 52 54 55 59 61 55 47 42 41 45
52 52 52 50 52 51 54 55 60 61 61 59 60 65 68 nan 65 nan nan nan nan nan nan nan nan nan 50 50 50 53 53 53 53 53 56 55 56 56 56 56 55 51 48 48 53 56 58 60 62 62 61 60 61 66 65 55 50 45 47 46 50 52 49 43 40 44 48 50 49 48 47 46 46 48 50 52 53 54 55 55 58 58 51 45 44 44
Wind_Direction
nan nan nan nan nan nan nan nan nan nan nan nan nan nan nan nan nan nan nan nan nan nan nan nan nan nan nan nan nan nan nan nan nan nan nan nan nan nan nan nan 330 323 322 nan nan nan 284 299 299 261 249 263 269 304 290 306 321 289 322 285 313 308 305 309 311 315 315 320 323 338 20 56 61 42 49 51 39 14 9 337 345 347 350 347 346 347
nan nan nan nan nan nan nan nan nan nan nan nan nan nan nan nan nan nan nan nan nan nan nan nan nan nan nan nan nan nan nan nan nan nan nan nan nan nan nan nan nan 325 306 317 300 282 nan 277 300 269 264 253 267 290 293 304 318 285 295 296 291 293 300 312 316 312 322 323 339 336 347 323 22 32 40 55 45 35 324 334 338 341 340 341 342 339
nan nan nan nan nan nan nan nan nan nan nan nan nan nan nan nan nan nan nan nan nan nan nan nan nan nan nan nan nan nan nan nan nan nan nan nan nan nan nan nan nan nan 313 319 319 302 nan 292 308 270 281 281 283 289 307 297 302 300 278 294 268 289 292 306 308 308 318 305 308 314 302 330 280 53 41 5 355 14 310 332 333 333 335 335 335 332
nan nan nan nan nan nan nan nan nan nan nan nan nan nan nan nan nan nan nan nan nan nan nan nan nan nan nan nan nan nan nan nan nan nan nan nan nan nan nan nan nan nan nan 318 315 322 293 287 296 275 284 286 279 288 295 299 310 299 283 292 284 285 288 298 303 307 306 300 285 293 291 299 302 315 330 322 327 347 309 325 330 329 332 335 335 332
nan nan nan nan nan nan nan nan nan nan nan nan nan nan nan nan nan nan nan nan nan nan nan nan nan nan nan nan nan nan nan nan nan nan nan nan nan nan nan nan nan nan nan 316 317 318 308 300 300 295 295 291 290 296 304 304 306 299 313 309 311 290 287 291 299 304 296 291 277 288 280 291 262 281 314 323 340 337 314 319 325 330 331 334 333 334
nan nan nan nan nan nan nan nan nan nan nan nan nan nan nan nan nan nan nan nan nan nan nan nan nan nan nan nan nan nan nan nan nan nan nan nan nan nan nan nan nan nan nan 316 320 322 322 314 303 301 305 309 297 298 301 305 312 311 310 308 309 299 283 292 303 302 298 296 291 294 298 307 311 305 319 336 337 330 324 324 327 326 329 331 332 332
nan nan nan nan nan nan nan nan nan nan nan nan nan nan nan nan nan nan nan nan nan nan nan nan nan nan nan 278 nan nan nan nan nan nan nan nan 290 nan nan nan nan nan nan 311 318 317 323 313 306 309 311 314 306 300 297 298 305 311 310 303 306 307 299 291 300 305 298 298 296 307 307 305 318 312 312 323 323 322 323 312 324 328 328 330 332 337
nan nan nan nan nan nan nan nan nan nan nan nan nan nan nan nan nan nan nan nan nan nan nan nan nan nan nan nan nan nan nan nan nan nan nan 276 276 295 294 298 302 307 308 306 311 319 322 322 315 315 316 312 315 305 304 305 300 306 311 304 305 304 311 304 302 311 306 307 308 304 305 299 306 318 320 316 322 319 320 317 324 323 328 330 332 337
nan nan nan nan nan nan nan nan nan nan nan nan nan nan nan nan nan nan nan nan nan nan nan nan nan nan nan nan nan nan nan nan nan nan 270 275 282 285 290 294 299 300 295 300 294 310 318 320 315 307 311 312 310 306 307 307 305 304 305 304 300 306 311 310 310 313 312 310 314 312 306 301 299 310 312 309 309 313 319 319 320 323 326 330 334 337
nan nan nan nan nan nan nan nan nan nan nan nan nan nan nan nan nan nan nan nan nan nan nan nan nan nan nan nan nan nan nan nan nan nan nan 280 278 282 280 283 292 290 285 296 305 302 310 316 314 311 312 310 315 310 303 301 297 298 298 304 307 307 303 308 312 313 316 315 311 309 307 309 305 304 304 305 311 312 313 319 320 321 323 328 330 335
nan nan nan nan nan nan nan nan nan nan nan nan nan nan nan nan nan nan nan nan nan nan nan nan nan nan nan nan nan nan nan nan nan nan nan nan 277 279 280 279 279 287 286 284 294 302 306 309 313 305 315 320 314 309 307 302 300 298 300 305 308 309 300 307 314 315 320 316 313 312 311 315 313 311 309 309 315 312 312 319 317 318 322 323 325 321
nan nan nan nan nan nan nan nan nan nan nan nan nan nan nan nan nan nan nan nan nan nan nan nan nan nan nan nan nan nan nan nan nan nan nan nan nan 282 275 280 280 285 287 285 288 301 302 289 300 301 311 313 314 310 311 304 299 299 299 301 306 304 304 303 309 314 318 314 313 309 311 312 313 312 307 315 319 319 320 318 315 315 314 317 317 313
nan nan nan nan nan nan nan nan nan nan nan nan nan nan nan nan nan nan nan nan nan nan nan nan nan nan nan nan nan nan nan nan nan nan 305 297 287 285 280 283 278 278 285 285 283 284 286 289 298 300 304 310 310 310 311 306 302 301 300 304 307 308 305 304 306 313 315 314 310 308 308 309 307 310 307 308 311 313 316 315 313 313 314 312 313 313
nan nan nan nan nan nan nan nan nan nan nan nan nan nan nan nan nan nan nan nan nan nan nan nan nan nan nan nan nan nan nan nan nan nan nan nan 295 293 288 285 288 285 284 276 281 291 296 295 296 303 304 311 312 312 310 307 303 299 299 301 306 309 307 303 304 308 309 313 308 303 304 305 302 304 304 301 303 308 312 316 316 315 315 315 317 318
nan nan nan nan nan nan nan nan nan nan nan nan nan nan nan nan nan nan nan nan nan nan nan nan nan nan nan nan nan nan nan nan nan nan nan nan nan nan 290 287 294 288 272 275 281 291 301 304 301 300 302 305 310 312 311 306 302 296 294 295 300 300 305 305 303 298 306 301 301 298 300 301 297 298 298 298 295 303 311 315 316 313 311 311 312 316
nan nan nan nan nan nan nan nan nan nan nan nan nan nan nan nan nan nan nan nan nan nan nan nan nan nan nan nan nan nan nan nan nan nan nan nan nan nan nan 281 290 291 287 288 296 299 305 306 299 293 296 299 303 312 308 306 297 293 290 290 295 300 302 304 301 299 300 298 295 299 301 302 299 293 293 291 292 298 310 314 312 313 312 310 309 310
nan nan nan nan nan nan nan nan nan nan nan nan nan nan nan nan nan nan nan nan nan nan nan nan nan nan nan nan nan nan nan nan nan nan nan nan nan nan nan 290 282 286 287 292 299 298 298 292 289 292 297 296 302 308 309 302 294 293 287 285 292 297 300 306 305 302 298 297 298 301 302 299 297 299 299 300 305 305 307 309 307 308 311 310 312 311
nan nan nan nan nan nan nan nan nan nan nan nan nan nan nan nan nan nan nan nan nan nan nan nan nan nan nan nan nan nan nan nan nan nan nan nan 309 nan 297 293 294 292 293 296 299 304 298 284 286 289 292 299 306 311 305 300 292 287 286 290 294 296 305 305 303 303 299 302 305 303 306 304 304 304 306 305 310 308 303 304 304 305 308 315 315 320
nan nan nan nan nan nan nan nan nan nan nan nan nan nan nan nan nan nan nan nan nan nan nan nan nan nan nan nan nan nan nan nan nan nan nan 304 308 311 303 297 296 299 299 296 290 280 279 275 275 287 298 303 301 297 296 292 290 287 285 290 298 306 309 308 302 303 302 309 302 301 309 312 310 310 312 310 311 310 308 311 315 318 316 317 318 323
nan nan nan nan nan nan nan nan nan nan nan nan nan nan nan nan nan nan nan nan nan nan nan nan nan nan nan nan nan nan nan nan nan nan nan 305 307 307 304 301 296 296 298 300 300 304 299 286 286 297 301 301 297 291 287 290 289 302 301 296 302 307 306 310 316 316 318 320 313 309 310 316 317 318 320 321 320 319 317 320 324 324 319 325 323 326
nan nan nan nan nan nan nan nan nan nan nan nan nan nan nan nan nan nan nan nan nan nan nan nan nan nan nan nan nan nan nan nan nan nan nan nan 303 305 308 309 298 296 303 299 293 295 293 282 290 299 297 297 288 283 283 290 301 301 297 306 318 326 331 334 332 330 330 326 331 325 326 324 322 327 324 326 326 326 325 322 325 328 324 320 330 329
nan nan nan nan nan nan nan nan nan nan nan nan nan nan nan nan nan nan nan nan nan nan nan nan nan nan nan nan nan nan nan nan nan nan nan nan nan 305 306 309 301 294 294 283 277 284 283 252 257 273 280 279 286 292 299 301 297 303 316 321 327 337 345 344 341 342 338 339 341 339 330 326 322 323 320 326 326 330 334 325 326 327 327 331 334 334
nan nan nan nan nan nan nan nan nan nan nan nan nan nan nan nan nan nan nan nan nan nan nan nan nan nan nan nan nan nan 229 nan nan nan nan nan nan nan 302 304 300 299 289 273 267 275 275 270 267 273 283 288 296 302 305 299 302 311 318 322 331 346 357 354 351 347 342 345 346 344 330 322 319 318 323 329 326 334 336 332 327 328 333 335 333 335
nan nan nan nan nan nan nan nan nan nan nan nan nan nan nan nan nan nan nan nan nan nan nan nan nan nan nan nan nan 203 225 nan nan nan nan nan nan nan 291 300 303 300 289 267 241 250 263 265 263 262 267 274 277 285 297 303 306 304 307 323 331 350 351 351 349 349 349 350 348 341 330 326 319 322 325 331 327 334 335 333 328 329 334 339 333 335
nan nan nan nan nan nan nan nan nan nan nan nan nan nan nan nan nan nan nan nan nan nan nan nan nan nan nan nan nan 197 223 248 nan nan nan nan nan nan nan 292 293 295 281 258 247 261 265 265 271 275 279 275 273 282 294 299 298 300 309 314 331 335 332 335 338 346 352 352 350 343 337 334 324 326 330 331 323 333 333 333 330 328 337 336 339 336
nan nan nan nan nan nan nan nan nan nan nan nan nan nan nan nan nan nan nan nan nan nan nan nan nan nan nan nan nan nan nan nan nan nan nan nan nan nan nan 277 291 287 273 271 277 275 275 278 280 284 284 273 271 275 281 289 294 294 297 308 308 309 317 321 323 338 344 347 350 346 341 334 328 330 331 329 324 330 333 333 332 330 331 334 337 334
nan nan nan nan nan nan nan nan nan nan nan nan nan nan nan nan nan nan nan nan nan nan nan nan nan nan nan nan nan nan nan nan nan nan 254 nan nan nan nan 276 294 293 276 271 274 273 274 278 288 296 296 282 273 271 272 279 284 283 283 290 295 299 304 308 313 324 334 341 348 345 339 331 327 320 322 322 320 320 329 336 337 333 331 331 336 338
nan nan nan nan nan nan nan nan nan nan nan nan nan nan nan nan nan nan nan nan nan nan nan nan nan nan nan nan nan nan nan nan 225 nan 264 254 253 278 277 275 288 283 271 270 278 282 283 284 285 285 286 282 276 273 271 273 277 279 279 284 287 288 294 296 308 315 324 331 341 345 339 327 319 314 315 315 316 322 334 338 331 330 328 329 339 343
nan nan nan nan nan nan nan nan nan nan nan nan nan nan nan nan nan nan nan nan nan nan nan nan nan nan nan nan nan nan nan nan nan nan 246 245 251 250 260 271 281 282 272 267 266 266 265 269 272 274 276 279 280 280 277 272 272 273 275 278 280 283 293 295 300 310 316 323 335 340 330 316 308 305 306 313 320 326 330 331 325 323 328 334 338 337
nan nan nan nan nan nan nan nan nan nan nan nan nan nan nan nan nan nan nan nan nan nan nan nan nan nan nan nan nan nan 210 217 221 225 nan 243 254 260 254 250 262 271 275 273 264 261 258 262 264 267 270 269 274 280 277 272 273 278 282 283 285 287 284 283 295 304 312 324 331 325 319 313 303 301 307 314 322 325 321 318 320 322 330 334 336 333
nan nan nan nan nan nan nan nan nan nan nan nan nan nan nan nan nan nan nan nan nan nan nan nan nan nan nan nan nan nan nan nan nan nan nan 227 246 251 248 249 243 244 244 240 241 242 248 257 261 261 263 267 274 280 280 278 277 276 279 282 289 292 286 286 290 298 310 322 317 310 310 309 303 299 310 313 311 310 310 315 315 317 323 327 329 330
nan nan nan nan nan nan nan nan nan nan nan nan nan nan nan nan nan nan nan nan nan nan nan nan nan nan nan nan nan nan nan nan nan nan nan nan 228 234 237 247 246 245 240 243 243 247 254 258 257 258 264 270 275 280 279 277 276 276 282 289 294 294 288 287 288 295 304 306 299 300 307 308 303 298 301 299 302 305 306 304 310 315 316 319 323 324
nan nan nan nan nan nan nan nan nan nan nan nan nan nan nan nan nan nan nan nan nan nan nan nan nan nan nan nan nan nan nan nan nan nan nan nan nan nan 230 231 246 245 246 248 250 253 261 268 269 270 270 270 273 275 279 281 279 282 286 288 290 286 288 292 291 290 291 288 290 297 303 303 300 295 291 293 293 293 293 299 306 311 311 317 319 318
nan nan nan nan nan nan nan nan nan nan nan nan nan nan nan nan nan nan nan nan nan nan nan nan nan nan nan nan nan nan nan nan nan nan nan nan nan 232 235 235 228 231 245 257 259 259 262 262 263 267 272 271 271 275 277 279 283 285 287 287 283 287 292 293 290 289 289 284 286 293 298 299 296 289 284 277 277 283 290 294 301 304 305 305 310 319
nan nan nan nan nan nan nan nan nan nan nan nan nan nan nan nan nan nan nan nan nan nan nan nan nan nan nan nan nan nan nan nan nan nan nan 220 nan 236 236 236 240 239 237 238 245 252 256 259 258 259 261 267 272 269 268 272 277 277 276 277 282 287 290 291 288 287 286 286 285 286 290 295 291 282 274 271 274 280 287 291 291 295 298 303 311 317
nan nan nan nan nan nan nan nan nan nan nan nan nan nan nan nan nan nan nan nan nan 213 222 222 233 nan nan 232 232 236 nan nan nan nan nan nan 227 nan nan nan nan 229 240 250 253 255 256 257 258 257 258 263 267 264 265 272 273 270 273 276 281 282 286 285 282 282 284 285 284 285 287 288 282 273 269 271 274 280 286 290 293 296 296 300 305 309
nan nan nan nan nan nan nan nan nan nan nan nan nan nan nan nan 220 nan nan 218 214 211 217 222 226 233 237 235 234 234 nan nan nan nan nan nan nan nan nan nan nan nan 230 238 255 262 260 258 257 257 257 258 263 263 264 266 267 268 268 271 274 277 278 278 278 278 283 286 282 277 275 277 276 272 273 276 280 286 290 293 294 295 297 303 305 306
nan nan nan nan nan nan nan nan nan nan nan nan nan nan nan nan nan 229 226 220 208 208 212 222 229 233 233 232 233 236 239 nan 239 nan 226 220 224 224 nan nan nan nan nan 234 238 245 252 250 249 252 254 254 256 264 263 261 262 264 267 270 270 270 271 273 274 274 278 280 277 271 268 269 273 276 279 283 289 292 292 292 292 297 301 306 303 301
nan 194 203 nan 218 nan nan nan nan nan nan nan 225 228 225 nan nan nan nan 220 215 215 214 219 225 227 229 231 230 235 nan nan 243 237 224 222 220 224 227 222 nan nan nan nan nan 241 244 248 251 254 254 252 251 252 253 255 260 264 269 270 269 268 268 269 269 269 273 275 273 269 267 268 272 277 282 286 287 287 289 291 294 294 294 294 293 293
nan nan nan nan nan nan nan nan nan nan nan nan 232 228 227 225 nan nan nan 226 225 222 218 222 228 228 230 230 229 233 236 240 236 233 232 228 228 227 223 226 226 224 220 221 226 nan 237 242 250 255 257 256 255 253 251 250 255 267 272 269 266 267 266 266 267 265 264 266 267 264 264 265 270 273 278 282 282 281 283 284 288 293 295 293 294 295
nan nan nan nan nan nan nan nan nan nan 227 228 226 231 232 nan 231 nan nan 235 233 232 225 228 232 233 234 234 233 234 231 235 235 234 233 232 232 229 224 224 232 232 228 224 225 226 230 237 249 257 260 259 256 252 254 254 257 264 268 264 261 266 267 263 259 258 259 261 261 260 262 262 266 273 276 279 280 279 282 288 291 293 296 295 294 295
197 197 nan nan nan nan nan nan nan 217 222 226 229 229 227 229 nan nan 234 235 238 237 234 231 232 231 234 237 237 235 231 232 233 233 233 233 232 232 229 226 226 228 238 236 232 230 228 231 241 248 254 258 260 259 260 260 258 260 260 255 255 259 258 256 257 256 257 259 258 257 259 261 264 270 273 274 277 281 284 285 286 289 292 291 291 292
205 203 196 nan nan nan nan 207 nan nan 218 223 222 225 226 228 226 232 235 234 235 238 237 234 232 231 232 234 235 235 235 234 234 235 235 232 228 225 228 230 226 224 234 240 238 233 232 226 223 227 237 249 257 259 258 256 254 253 254 252 248 246 249 254 256 257 256 256 256 255 257 260 266 267 268 272 277 282 283 283 286 290 289 290 289 289
203 201 200 194 200 nan nan nan 212 209 209 222 231 231 228 230 230 232 236 238 236 236 237 237 233 230 232 234 232 232 233 233 233 232 233 231 228 226 228 229 229 226 224 228 236 243 241 234 231 231 228 227 227 239 253 260 260 260 258 251 241 240 244 250 254 254 254 253 253 252 253 257 262 263 265 272 276 279 282 283 286 288 289 290 289 287
208 206 202 197 198 205 203 203 199 195 203 217 223 227 227 228 230 235 236 237 238 238 240 240 236 233 232 235 235 232 233 233 232 231 232 230 230 229 229 230 233 233 231 228 231 235 238 240 239 235 234 236 234 232 228 234 248 255 253 249 243 239 242 247 250 250 251 250 249 249 251 254 256 259 262 267 272 276 279 282 284 286 287 287 287 289
nan 211 207 204 209 204 205 209 203 203 205 224 223 221 223 224 225 231 235 236 235 238 238 241 241 238 236 236 237 235 236 235 234 231 231 231 232 232 233 233 234 235 234 234 233 233 238 240 241 243 246 245 246 247 244 231 220 230 240 243 241 238 237 242 246 247 247 246 246 249 251 253 253 256 260 265 268 272 275 280 282 282 281 283 287 295
210 212 211 209 208 210 211 207 211 210 207 226 234 231 232 232 232 232 232 234 237 237 236 234 238 239 238 237 236 238 236 235 237 235 233 233 234 235 237 238 238 238 238 237 235 236 238 239 241 245 249 251 248 250 252 250 242 226 223 235 237 233 236 239 243 244 244 244 244 246 250 253 253 255 257 259 262 267 271 273 275 278 280 285 291 296
208 210 208 208 208 213 215 213 210 213 212 222 234 238 239 239 240 238 236 235 238 238 237 235 nan nan nan nan 235 237 237 234 235 234 236 237 239 240 241 242 241 241 241 240 239 240 241 242 243 244 247 250 246 244 245 247 245 240 236 232 232 228 230 239 242 242 242 241 240 241 245 248 258 257 255 256 261 266 269 272 276 279 281 286 291 295
205 209 208 207 209 212 213 214 216 216 216 221 229 233 235 240 244 242 239 238 nan nan nan nan nan nan nan nan 238 237 237 235 235 237 238 240 241 243 245 248 247 245 243 242 243 244 245 242 243 246 250 252 249 246 247 245 241 241 246 237 222 221 227 232 237 238 238 237 238 240 243 247 248 250 254 255 255 255 256 259 263 268 269 270 279 288
211 211 209 205 207 213 nan 218 220 224 223 222 228 230 233 236 239 240 nan nan nan nan nan nan nan nan 239 240 239 238 240 238 237 239 240 241 242 243 244 247 250 249 247 246 247 246 245 244 243 242 246 250 249 247 247 244 245 247 254 236 220 218 222 223 223 228 233 236 240 243 245 246 248 250 253 255 257 260 259 259 260 258 266 276 278 279
211 210 210 207 211 213 218 218 227 232 227 224 230 232 233 nan 235 nan nan nan nan nan nan nan nan nan 237 238 238 241 242 241 241 242 244 243 242 242 244 247 248 247 248 248 248 247 246 244 245 246 243 242 244 248 247 242 246 247 238 225 221 219 221 223 222 225 231 237 240 243 246 248 249 250 251 254 257 259 262 261 257 255 257 265 272 277